Вернуться в каталог

COSMOS 397 DEB *

АктивенLEO
NORAD 19024·DEBRIS·🇷🇺 Russia

Запущен Feb 25, 1971 с Baikonur Cosmodrome

Loading…

Ближайшие Пролёты (ближайшие 24 часа)

TLE

СвежийSource: Space-Track

Эпоха: Sep 14, 2026, 10:13 UTC

1 19024U 71015DN  26257.42590459  .00000524  00000-0  67119-3 0  9998
2 19024  66.2741 249.5370 0501507 333.5468  96.5494 13.26848681857569

Отслеживайте COSMOS 397 DEB * в реальном времени с AllMySat

Download on the App Store